Year,Month,Day,Hour,Minute,Value (Times are PST for insolation in W/m^2)
2012,11,03,00,00,0.00
2012,11,03,00,01,0.00
2012,11,03,00,02,0.00
2012,11,03,00,03,0.00
2012,11,03,00,04,0.00
2012,11,03,00,05,0.00
2012,11,03,00,06,0.00
2012,11,03,00,07,0.00
2012,11,03,00,08,0.00
2012,11,03,00,09,0.00
2012,11,03,00,10,0.00
2012,11,03,00,11,0.00
2012,11,03,00,12,0.00
2012,11,03,00,13,0.00
2012,11,03,00,14,0.00
2012,11,03,00,15,0.00
2012,11,03,00,16,0.00
2012,11,03,00,17,0.00
2012,11,03,00,18,0.00
2012,11,03,00,19,0.00
2012,11,03,00,20,0.00
2012,11,03,00,21,0.00
2012,11,03,00,22,0.00
2012,11,03,00,23,0.00
2012,11,03,00,24,0.00
2012,11,03,00,25,0.00
2012,11,03,00,26,0.00
2012,11,03,00,27,0.00
2012,11,03,00,28,0.00
2012,11,03,00,29,0.00
2012,11,03,00,30,0.00
2012,11,03,00,31,0.00
2012,11,03,00,32,0.00
2012,11,03,00,33,0.00
2012,11,03,00,34,0.00
2012,11,03,00,35,0.00
2012,11,03,00,36,0.00
2012,11,03,00,37,0.00
2012,11,03,00,38,0.00
2012,11,03,00,39,0.00
2012,11,03,00,40,0.00
2012,11,03,00,41,0.00
2012,11,03,00,42,0.00
2012,11,03,00,43,0.00
2012,11,03,00,44,0.00
2012,11,03,00,45,0.00
2012,11,03,00,46,0.00
2012,11,03,00,47,0.00
2012,11,03,00,48,0.00
2012,11,03,00,49,0.00
2012,11,03,00,50,0.00
2012,11,03,00,51,0.00
2012,11,03,00,52,0.00
2012,11,03,00,53,0.00
2012,11,03,00,54,0.00
2012,11,03,00,55,0.00
2012,11,03,00,56,0.00
2012,11,03,00,57,0.00
2012,11,03,00,58,0.00
2012,11,03,00,59,0.00
2012,11,03,01,00,0.00
2012,11,03,01,01,0.00
2012,11,03,01,02,0.00
2012,11,03,01,03,0.00
2012,11,03,01,04,0.00
2012,11,03,01,05,0.00
2012,11,03,01,06,0.00
2012,11,03,01,07,0.00
2012,11,03,01,08,0.00
2012,11,03,01,09,0.00
2012,11,03,01,10,0.00
2012,11,03,01,11,0.00
2012,11,03,01,12,0.00
2012,11,03,01,13,0.00
2012,11,03,01,14,0.00
2012,11,03,01,15,0.00
2012,11,03,01,16,0.00
2012,11,03,01,17,0.00
2012,11,03,01,18,0.00
2012,11,03,01,19,0.00
2012,11,03,01,20,0.00
2012,11,03,01,21,0.00
2012,11,03,01,22,0.00
2012,11,03,01,23,0.00
2012,11,03,01,24,0.00
2012,11,03,01,25,0.00
2012,11,03,01,26,0.00
2012,11,03,01,27,0.00
2012,11,03,01,28,0.00
2012,11,03,01,29,0.00
2012,11,03,01,30,0.00
2012,11,03,01,31,0.00
2012,11,03,01,32,0.00
2012,11,03,01,33,0.00
2012,11,03,01,34,0.00
2012,11,03,01,35,0.00
2012,11,03,01,36,0.00
2012,11,03,01,37,0.00
2012,11,03,01,38,0.00
2012,11,03,01,39,0.00
2012,11,03,01,40,0.00
2012,11,03,01,41,0.00
2012,11,03,01,42,0.00
2012,11,03,01,43,0.00
2012,11,03,01,44,0.00
2012,11,03,01,45,0.00
2012,11,03,01,46,0.00
2012,11,03,01,47,0.00
2012,11,03,01,48,0.00
2012,11,03,01,49,0.00
2012,11,03,01,50,0.00
2012,11,03,01,51,0.00
2012,11,03,01,52,0.00
2012,11,03,01,53,0.00
2012,11,03,01,54,0.00
2012,11,03,01,55,0.00
2012,11,03,01,56,0.00
2012,11,03,01,57,0.00
2012,11,03,01,58,0.00
2012,11,03,01,59,0.00
2012,11,03,02,00,0.00
2012,11,03,02,01,0.00
2012,11,03,02,02,0.00
2012,11,03,02,03,0.00
2012,11,03,02,04,0.00
2012,11,03,02,05,0.00
2012,11,03,02,06,0.00
2012,11,03,02,07,0.00
2012,11,03,02,08,0.00
2012,11,03,02,09,0.00
2012,11,03,02,10,0.00
2012,11,03,02,11,0.00
2012,11,03,02,12,0.00
2012,11,03,02,13,0.00
2012,11,03,02,14,0.00
2012,11,03,02,15,0.00
2012,11,03,02,16,0.00
2012,11,03,02,17,0.00
2012,11,03,02,18,0.00
2012,11,03,02,19,0.00
2012,11,03,02,20,0.00
2012,11,03,02,21,0.00
2012,11,03,02,22,0.00
2012,11,03,02,23,0.00
2012,11,03,02,24,0.00
2012,11,03,02,25,0.00
2012,11,03,02,26,0.00
2012,11,03,02,27,0.00
2012,11,03,02,28,0.00
2012,11,03,02,29,0.00
2012,11,03,02,30,0.00
2012,11,03,02,31,0.00
2012,11,03,02,32,0.00
2012,11,03,02,33,0.00
2012,11,03,02,34,0.00
2012,11,03,02,35,0.00
2012,11,03,02,36,0.00
2012,11,03,02,37,0.00
2012,11,03,02,38,0.00
2012,11,03,02,39,0.00
2012,11,03,02,40,0.00
2012,11,03,02,41,0.00
2012,11,03,02,42,0.00
2012,11,03,02,43,0.00
2012,11,03,02,44,0.00
2012,11,03,02,45,0.00
2012,11,03,02,46,0.00
2012,11,03,02,47,0.00
2012,11,03,02,48,0.00
2012,11,03,02,49,0.00
2012,11,03,02,50,0.00
2012,11,03,02,51,0.00
2012,11,03,02,52,0.00
2012,11,03,02,53,0.00
2012,11,03,02,54,0.00
2012,11,03,02,55,0.00
2012,11,03,02,56,0.00
2012,11,03,02,57,0.00
2012,11,03,02,58,0.00
2012,11,03,02,59,0.00
2012,11,03,03,00,0.00
2012,11,03,03,01,0.00
2012,11,03,03,02,0.00
2012,11,03,03,03,0.00
2012,11,03,03,04,0.00
2012,11,03,03,05,0.00
2012,11,03,03,06,0.00
2012,11,03,03,07,0.00
2012,11,03,03,08,0.00
2012,11,03,03,09,0.00
2012,11,03,03,10,0.00
2012,11,03,03,11,0.00
2012,11,03,03,12,0.00
2012,11,03,03,13,0.00
2012,11,03,03,14,0.00
2012,11,03,03,15,0.00
2012,11,03,03,16,0.00
2012,11,03,03,17,0.00
2012,11,03,03,18,0.00
2012,11,03,03,19,0.00
2012,11,03,03,20,0.00
2012,11,03,03,21,0.00
2012,11,03,03,22,0.00
2012,11,03,03,23,0.00
2012,11,03,03,24,0.00
2012,11,03,03,25,0.00
2012,11,03,03,26,0.00
2012,11,03,03,27,0.00
2012,11,03,03,28,0.00
2012,11,03,03,29,0.00
2012,11,03,03,30,0.00
2012,11,03,03,31,0.00
2012,11,03,03,32,0.00
2012,11,03,03,33,0.00
2012,11,03,03,34,0.00
2012,11,03,03,35,0.00
2012,11,03,03,36,0.00
2012,11,03,03,37,0.00
2012,11,03,03,38,0.00
2012,11,03,03,39,0.00
2012,11,03,03,40,0.00
2012,11,03,03,41,0.00
2012,11,03,03,42,0.00
2012,11,03,03,43,0.00
2012,11,03,03,44,0.00
2012,11,03,03,45,0.00
2012,11,03,03,46,0.00
2012,11,03,03,47,0.00
2012,11,03,03,48,0.00
2012,11,03,03,49,0.00
2012,11,03,03,50,0.00
2012,11,03,03,51,0.00
2012,11,03,03,52,0.00
2012,11,03,03,53,0.00
2012,11,03,03,54,0.00
2012,11,03,03,55,0.00
2012,11,03,03,56,0.00
2012,11,03,03,57,0.00
2012,11,03,03,58,0.00
2012,11,03,03,59,0.00
2012,11,03,04,00,0.00
2012,11,03,04,01,0.00
2012,11,03,04,02,0.00
2012,11,03,04,03,0.00
2012,11,03,04,04,0.00
2012,11,03,04,05,0.00
2012,11,03,04,06,0.00
2012,11,03,04,07,0.00
2012,11,03,04,08,0.00
2012,11,03,04,09,0.00
2012,11,03,04,10,0.00
2012,11,03,04,11,0.00
2012,11,03,04,12,0.00
2012,11,03,04,13,0.00
2012,11,03,04,14,0.00
2012,11,03,04,15,0.00
2012,11,03,04,16,0.00
2012,11,03,04,17,0.00
2012,11,03,04,18,0.00
2012,11,03,04,19,0.00
2012,11,03,04,20,0.00
2012,11,03,04,21,0.00
2012,11,03,04,22,0.00
2012,11,03,04,23,0.00
2012,11,03,04,24,0.00
2012,11,03,04,25,0.00
2012,11,03,04,26,0.00
2012,11,03,04,27,0.00
2012,11,03,04,28,0.00
2012,11,03,04,29,0.00
2012,11,03,04,30,0.00
2012,11,03,04,31,0.00
2012,11,03,04,32,0.00
2012,11,03,04,33,0.00
2012,11,03,04,34,0.00
2012,11,03,04,35,0.00
2012,11,03,04,36,0.00
2012,11,03,04,37,0.00
2012,11,03,04,38,0.00
2012,11,03,04,39,0.00
2012,11,03,04,40,0.00
2012,11,03,04,41,0.00
2012,11,03,04,42,0.00
2012,11,03,04,43,0.00
2012,11,03,04,44,0.00
2012,11,03,04,45,0.00
2012,11,03,04,46,0.00
2012,11,03,04,47,0.00
2012,11,03,04,48,0.00
2012,11,03,04,49,0.00
2012,11,03,04,50,0.00
2012,11,03,04,51,0.00
2012,11,03,04,52,0.00
2012,11,03,04,53,0.00
2012,11,03,04,54,0.00
2012,11,03,04,55,0.00
2012,11,03,04,56,0.00
2012,11,03,04,57,0.00
2012,11,03,04,58,0.00
2012,11,03,04,59,0.00
2012,11,03,05,00,0.00
2012,11,03,05,01,0.00
2012,11,03,05,02,0.00
2012,11,03,05,03,0.00
2012,11,03,05,04,0.00
2012,11,03,05,05,0.00
2012,11,03,05,06,0.00
2012,11,03,05,07,0.00
2012,11,03,05,08,0.00
2012,11,03,05,09,0.00
2012,11,03,05,10,0.00
2012,11,03,05,11,0.00
2012,11,03,05,12,0.00
2012,11,03,05,13,0.00
2012,11,03,05,14,0.00
2012,11,03,05,15,0.00
2012,11,03,05,16,0.00
2012,11,03,05,17,0.00
2012,11,03,05,18,0.00
2012,11,03,05,19,0.00
2012,11,03,05,20,0.00
2012,11,03,05,21,0.00
2012,11,03,05,22,0.00
2012,11,03,05,23,0.00
2012,11,03,05,24,0.00
2012,11,03,05,25,0.00
2012,11,03,05,26,0.00
2012,11,03,05,27,0.00
2012,11,03,05,28,0.00
2012,11,03,05,29,0.00
2012,11,03,05,30,0.00
2012,11,03,05,31,0.00
2012,11,03,05,32,0.00
2012,11,03,05,33,0.00
2012,11,03,05,34,0.00
2012,11,03,05,35,0.00
2012,11,03,05,36,0.00
2012,11,03,05,37,0.00
2012,11,03,05,38,0.00
2012,11,03,05,39,0.00
2012,11,03,05,40,0.00
2012,11,03,05,41,0.00
2012,11,03,05,42,0.00
2012,11,03,05,43,0.00
2012,11,03,05,44,0.00
2012,11,03,05,45,0.00
2012,11,03,05,46,0.00
2012,11,03,05,47,0.00
2012,11,03,05,48,0.00
2012,11,03,05,49,0.00
2012,11,03,05,50,0.00
2012,11,03,05,51,0.00
2012,11,03,05,52,0.00
2012,11,03,05,53,0.00
2012,11,03,05,54,0.00
2012,11,03,05,55,0.00
2012,11,03,05,56,0.00
2012,11,03,05,57,0.00
2012,11,03,05,58,0.00
2012,11,03,05,59,0.00
2012,11,03,06,00,0.00
2012,11,03,06,01,0.00
2012,11,03,06,02,0.00
2012,11,03,06,03,0.00
2012,11,03,06,04,0.00
2012,11,03,06,05,0.00
2012,11,03,06,06,0.00
2012,11,03,06,07,0.00
2012,11,03,06,08,0.00
2012,11,03,06,09,0.00
2012,11,03,06,10,0.00
2012,11,03,06,11,0.00
2012,11,03,06,12,0.00
2012,11,03,06,13,0.00
2012,11,03,06,14,0.00
2012,11,03,06,15,0.00
2012,11,03,06,16,0.00
2012,11,03,06,17,0.00
2012,11,03,06,18,0.00
2012,11,03,06,19,0.00
2012,11,03,06,20,0.00
2012,11,03,06,21,0.00
2012,11,03,06,22,0.00
2012,11,03,06,23,0.00
2012,11,03,06,24,0.00
2012,11,03,06,25,0.00
2012,11,03,06,26,0.00
2012,11,03,06,27,0.00
2012,11,03,06,28,0.00
2012,11,03,06,29,0.00
2012,11,03,06,30,0.00
2012,11,03,06,31,0.00
2012,11,03,06,32,0.00
2012,11,03,06,33,0.00
2012,11,03,06,34,0.00
2012,11,03,06,35,0.00
2012,11,03,06,36,0.00
2012,11,03,06,37,0.00
2012,11,03,06,38,0.00
2012,11,03,06,39,0.00
2012,11,03,06,40,0.00
2012,11,03,06,41,0.00
2012,11,03,06,42,0.00
2012,11,03,06,43,0.00
2012,11,03,06,44,0.00
2012,11,03,06,45,0.00
2012,11,03,06,46,0.00
2012,11,03,06,47,0.00
2012,11,03,06,48,0.00
2012,11,03,06,49,0.00
2012,11,03,06,50,0.00
2012,11,03,06,51,0.00
2012,11,03,06,52,0.00
2012,11,03,06,53,0.00
2012,11,03,06,54,0.00
2012,11,03,06,55,0.00
2012,11,03,06,56,0.00
2012,11,03,06,57,0.00
2012,11,03,06,58,0.00
2012,11,03,06,59,0.00
2012,11,03,07,00,0.00
2012,11,03,07,01,0.00
2012,11,03,07,02,0.00
2012,11,03,07,03,0.00
2012,11,03,07,04,0.00
2012,11,03,07,05,0.00
2012,11,03,07,06,0.00
2012,11,03,07,07,0.00
2012,11,03,07,08,0.00
2012,11,03,07,09,0.00
2012,11,03,07,10,0.00
2012,11,03,07,11,0.00
2012,11,03,07,12,0.00
2012,11,03,07,13,0.00
2012,11,03,07,14,0.00
2012,11,03,07,15,0.00
2012,11,03,07,16,0.00
2012,11,03,07,17,0.00
2012,11,03,07,18,0.00
2012,11,03,07,19,0.00
2012,11,03,07,20,0.00
2012,11,03,07,21,0.00
2012,11,03,07,22,0.00
2012,11,03,07,23,0.00
2012,11,03,07,24,0.00
2012,11,03,07,25,0.00
2012,11,03,07,26,0.00
2012,11,03,07,27,0.00
2012,11,03,07,28,0.00
2012,11,03,07,29,0.00
2012,11,03,07,30,0.00
2012,11,03,07,31,0.00
2012,11,03,07,32,0.00
2012,11,03,07,33,0.00
2012,11,03,07,34,0.00
2012,11,03,07,35,0.00
2012,11,03,07,36,0.00
2012,11,03,07,37,0.00
2012,11,03,07,38,0.00
2012,11,03,07,39,0.00
2012,11,03,07,40,0.00
2012,11,03,07,41,0.00
2012,11,03,07,42,0.00
2012,11,03,07,43,0.00
2012,11,03,07,44,0.00
2012,11,03,07,45,0.00
2012,11,03,07,46,0.00
2012,11,03,07,47,0.00
2012,11,03,07,48,0.00
2012,11,03,07,49,0.00
2012,11,03,07,50,0.00
2012,11,03,07,51,0.00
2012,11,03,07,52,0.00
2012,11,03,07,53,0.00
2012,11,03,07,54,0.00
2012,11,03,07,55,0.00
2012,11,03,07,56,0.00
2012,11,03,07,57,0.00
2012,11,03,07,58,0.00
2012,11,03,07,59,0.00
2012,11,03,08,00,0.00
2012,11,03,08,01,0.00
2012,11,03,08,02,0.00
2012,11,03,08,03,0.00
2012,11,03,08,04,0.00
2012,11,03,08,05,0.00
2012,11,03,08,06,0.00
2012,11,03,08,07,0.00
2012,11,03,08,08,0.00
2012,11,03,08,09,0.00
2012,11,03,08,10,0.00
2012,11,03,08,11,0.00
2012,11,03,08,12,0.00
2012,11,03,08,13,0.00
2012,11,03,08,14,0.00
2012,11,03,08,15,0.00
2012,11,03,08,16,0.00
2012,11,03,08,17,0.00
2012,11,03,08,18,3.90
2012,11,03,08,19,5.00
2012,11,03,08,20,5.00
2012,11,03,08,21,5.30
2012,11,03,08,22,7.00
2012,11,03,08,23,7.00
2012,11,03,08,24,7.00
2012,11,03,08,25,7.00
2012,11,03,08,26,7.00
2012,11,03,08,27,7.00
2012,11,03,08,28,7.00
2012,11,03,08,29,7.00
2012,11,03,08,30,7.00
2012,11,03,08,31,7.00
2012,11,03,08,32,7.30
2012,11,03,08,33,9.00
2012,11,03,08,34,9.60
2012,11,03,08,35,11.00
2012,11,03,08,36,11.00
2012,11,03,08,37,11.00
2012,11,03,08,38,11.00
2012,11,03,08,39,11.00
2012,11,03,08,40,11.80
2012,11,03,08,41,12.00
2012,11,03,08,42,14.00
2012,11,03,08,43,14.30
2012,11,03,08,44,16.00
2012,11,03,08,45,16.60
2012,11,03,08,46,18.00
2012,11,03,08,47,18.00
2012,11,03,08,48,18.00
2012,11,03,08,49,18.00
2012,11,03,08,50,18.70
2012,11,03,08,51,19.00
2012,11,03,08,52,20.70
2012,11,03,08,53,21.00
2012,11,03,08,54,21.20
2012,11,03,08,55,23.00
2012,11,03,08,56,23.00
2012,11,03,08,57,23.80
2012,11,03,08,58,25.00
2012,11,03,08,59,25.60
2012,11,03,09,00,26.00
2012,11,03,09,01,27.40
2012,11,03,09,02,29.60
2012,11,03,09,03,30.00
2012,11,03,09,04,31.90
2012,11,03,09,05,32.20
2012,11,03,09,06,33.50
2012,11,03,09,07,35.60
2012,11,03,09,08,37.80
2012,11,03,09,09,39.50
2012,11,03,09,10,40.00
2012,11,03,09,11,40.00
2012,11,03,09,12,39.30
2012,11,03,09,13,39.00
2012,11,03,09,14,39.00
2012,11,03,09,15,37.10
2012,11,03,09,16,37.00
2012,11,03,09,17,37.40
2012,11,03,09,18,39.00
2012,11,03,09,19,39.40
2012,11,03,09,20,40.00
2012,11,03,09,21,41.10
2012,11,03,09,22,42.00
2012,11,03,09,23,43.50
2012,11,03,09,24,44.00
2012,11,03,09,25,44.00
2012,11,03,09,26,45.90
2012,11,03,09,27,46.00
2012,11,03,09,28,46.00
2012,11,03,09,29,45.30
2012,11,03,09,30,44.00
2012,11,03,09,31,42.10
2012,11,03,09,32,39.50
2012,11,03,09,33,39.00
2012,11,03,09,34,39.70
2012,11,03,09,35,40.00
2012,11,03,09,36,40.00
2012,11,03,09,37,42.00
2012,11,03,09,38,42.30
2012,11,03,09,39,44.00
2012,11,03,09,40,45.00
2012,11,03,09,41,47.80
2012,11,03,09,42,50.90
2012,11,03,09,43,53.50
2012,11,03,09,44,53.30
2012,11,03,09,45,50.20
2012,11,03,09,46,47.40
2012,11,03,09,47,47.00
2012,11,03,09,48,47.00
2012,11,03,09,49,47.20
2012,11,03,09,50,49.00
2012,11,03,09,51,49.60
2012,11,03,09,52,51.00
2012,11,03,09,53,51.90
2012,11,03,09,54,53.00
2012,11,03,09,55,53.00
2012,11,03,09,56,51.60
2012,11,03,09,57,49.40
2012,11,03,09,58,47.20
2012,11,03,09,59,46.00
2012,11,03,10,00,45.70
2012,11,03,10,01,44.00
2012,11,03,10,02,44.00
2012,11,03,10,03,44.70
2012,11,03,10,04,46.00
2012,11,03,10,05,46.00
2012,11,03,10,06,46.00
2012,11,03,10,07,46.00
2012,11,03,10,08,46.80
2012,11,03,10,09,47.00
2012,11,03,10,10,46.00
2012,11,03,10,11,46.00
2012,11,03,10,12,46.00
2012,11,03,10,13,46.00
2012,11,03,10,14,46.00
2012,11,03,10,15,46.50
2012,11,03,10,16,50.30
2012,11,03,10,17,57.50
2012,11,03,10,18,63.70
2012,11,03,10,19,68.80
2012,11,03,10,20,75.40
2012,11,03,10,21,79.00
2012,11,03,10,22,79.00
2012,11,03,10,23,79.00
2012,11,03,10,24,80.20
2012,11,03,10,25,84.20
2012,11,03,10,26,88.40
2012,11,03,10,27,94.30
2012,11,03,10,28,97.70
2012,11,03,10,29,99.50
2012,11,03,10,30,100.00
2012,11,03,10,31,100.00
2012,11,03,10,32,99.90
2012,11,03,10,33,97.70
2012,11,03,10,34,93.80
2012,11,03,10,35,88.80
2012,11,03,10,36,84.80
2012,11,03,10,37,82.00
2012,11,03,10,38,81.00
2012,11,03,10,39,79.80
2012,11,03,10,40,79.00
2012,11,03,10,41,80.60
2012,11,03,10,42,82.70
2012,11,03,10,43,84.10
2012,11,03,10,44,86.00
2012,11,03,10,45,86.00
2012,11,03,10,46,86.60
2012,11,03,10,47,88.80
2012,11,03,10,48,90.50
2012,11,03,10,49,92.10
2012,11,03,10,50,93.00
2012,11,03,10,51,91.60
2012,11,03,10,52,90.20
2012,11,03,10,53,86.40
2012,11,03,10,54,81.00
2012,11,03,10,55,75.60
2012,11,03,10,56,71.60
2012,11,03,10,57,69.70
2012,11,03,10,58,69.00
2012,11,03,10,59,69.00
2012,11,03,11,00,67.90
2012,11,03,11,01,67.00
2012,11,03,11,02,65.60
2012,11,03,11,03,63.40
2012,11,03,11,04,63.00
2012,11,03,11,05,63.00
2012,11,03,11,06,62.80
2012,11,03,11,07,62.00
2012,11,03,11,08,62.30
2012,11,03,11,09,64.50
2012,11,03,11,10,70.20
2012,11,03,11,11,77.80
2012,11,03,11,12,86.80
2012,11,03,11,13,92.20
2012,11,03,11,14,94.60
2012,11,03,11,15,95.00
2012,11,03,11,16,92.90
2012,11,03,11,17,90.50
2012,11,03,11,18,84.80
2012,11,03,11,19,78.90
2012,11,03,11,20,72.50
2012,11,03,11,21,70.00
2012,11,03,11,22,72.10
2012,11,03,11,23,75.20
2012,11,03,11,24,76.00
2012,11,03,11,25,76.00
2012,11,03,11,26,76.00
2012,11,03,11,27,76.10
2012,11,03,11,28,77.90
2012,11,03,11,29,84.10
2012,11,03,11,30,89.50
2012,11,03,11,31,95.80
2012,11,03,11,32,102.50
2012,11,03,11,33,106.20
2012,11,03,11,34,109.40
2012,11,03,11,35,113.20
2012,11,03,11,36,117.00
2012,11,03,11,37,119.80
2012,11,03,11,38,120.00
2012,11,03,11,39,120.00
2012,11,03,11,40,120.00
2012,11,03,11,41,119.40
2012,11,03,11,42,116.40
2012,11,03,11,43,112.50
2012,11,03,11,44,107.30
2012,11,03,11,45,98.60
2012,11,03,11,46,87.10
2012,11,03,11,47,77.70
2012,11,03,11,48,69.70
2012,11,03,11,49,67.20
2012,11,03,11,50,69.00
2012,11,03,11,51,69.20
2012,11,03,11,52,69.70
2012,11,03,11,53,66.90
2012,11,03,11,54,63.90
2012,11,03,11,55,63.80
2012,11,03,11,56,63.00
2012,11,03,11,57,65.90
2012,11,03,11,58,69.40
2012,11,03,11,59,71.80
2012,11,03,12,00,72.00
2012,11,03,12,01,72.20
2012,11,03,12,02,74.50
2012,11,03,12,03,76.00
2012,11,03,12,04,75.20
2012,11,03,12,05,72.00
2012,11,03,12,06,68.40
2012,11,03,12,07,64.00
2012,11,03,12,08,59.20
2012,11,03,12,09,56.40
2012,11,03,12,10,56.00
2012,11,03,12,11,59.80
2012,11,03,12,12,59.40
2012,11,03,12,13,56.00
2012,11,03,12,14,56.00
2012,11,03,12,15,55.20
2012,11,03,12,16,53.50
2012,11,03,12,17,53.00
2012,11,03,12,18,53.70
2012,11,03,12,19,57.00
2012,11,03,12,20,59.60
2012,11,03,12,21,60.00
2012,11,03,12,22,62.00
2012,11,03,12,23,61.70
2012,11,03,12,24,59.50
2012,11,03,12,25,58.00
2012,11,03,12,26,56.40
2012,11,03,12,27,53.50
2012,11,03,12,28,51.90
2012,11,03,12,29,53.00
2012,11,03,12,30,57.00
2012,11,03,12,31,61.20
2012,11,03,12,32,60.30
2012,11,03,12,33,58.10
2012,11,03,12,34,58.20
2012,11,03,12,35,60.40
2012,11,03,12,36,61.40
2012,11,03,12,37,58.50
2012,11,03,12,38,56.00
2012,11,03,12,39,56.00
2012,11,03,12,40,56.00
2012,11,03,12,41,52.50
2012,11,03,12,42,47.80
2012,11,03,12,43,46.20
2012,11,03,12,44,44.20
2012,11,03,12,45,46.00
2012,11,03,12,46,46.60
2012,11,03,12,47,49.60
2012,11,03,12,48,51.00
2012,11,03,12,49,51.00
2012,11,03,12,50,49.90
2012,11,03,12,51,50.30
2012,11,03,12,52,54.80
2012,11,03,12,53,59.20
2012,11,03,12,54,60.00
2012,11,03,12,55,58.00
2012,11,03,12,56,57.70
2012,11,03,12,57,55.20
2012,11,03,12,58,51.70
2012,11,03,12,59,48.30
2012,11,03,13,00,47.00
2012,11,03,13,01,47.00
2012,11,03,13,02,48.30
2012,11,03,13,03,50.50
2012,11,03,13,04,52.60
2012,11,03,13,05,53.90
2012,11,03,13,06,56.40
2012,11,03,13,07,60.30
2012,11,03,13,08,62.00
2012,11,03,13,09,62.00
2012,11,03,13,10,62.00
2012,11,03,13,11,64.20
2012,11,03,13,12,69.90
2012,11,03,13,13,74.50
2012,11,03,13,14,76.70
2012,11,03,13,15,80.20
2012,11,03,13,16,87.30
2012,11,03,13,17,95.30
2012,11,03,13,18,101.10
2012,11,03,13,19,109.20
2012,11,03,13,20,118.80
2012,11,03,13,21,127.80
2012,11,03,13,22,133.00
2012,11,03,13,23,131.80
2012,11,03,13,24,124.30
2012,11,03,13,25,117.50
2012,11,03,13,26,116.00
2012,11,03,13,27,119.60
2012,11,03,13,28,119.90
2012,11,03,13,29,118.40
2012,11,03,13,30,122.50
2012,11,03,13,31,127.80
2012,11,03,13,32,130.70
2012,11,03,13,33,131.10
2012,11,03,13,34,132.20
2012,11,03,13,35,139.20
2012,11,03,13,36,146.50
2012,11,03,13,37,148.00
2012,11,03,13,38,142.60
2012,11,03,13,39,133.90
2012,11,03,13,40,124.10
2012,11,03,13,41,115.40
2012,11,03,13,42,112.40
2012,11,03,13,43,110.30
2012,11,03,13,44,106.80
2012,11,03,13,45,102.90
2012,11,03,13,46,102.00
2012,11,03,13,47,102.00
2012,11,03,13,48,102.00
2012,11,03,13,49,102.00
2012,11,03,13,50,101.30
2012,11,03,13,51,85.70
2012,11,03,13,52,84.00
2012,11,03,13,53,83.70
2012,11,03,13,54,83.00
2012,11,03,13,55,83.50
2012,11,03,13,56,87.80
2012,11,03,13,57,95.40
2012,11,03,13,58,99.40
2012,11,03,13,59,103.20
2012,11,03,14,00,106.60
2012,11,03,14,01,103.80
2012,11,03,14,02,96.10
2012,11,03,14,03,87.00
2012,11,03,14,04,84.60
2012,11,03,14,05,86.00
2012,11,03,14,06,86.00
2012,11,03,14,07,84.90
2012,11,03,14,08,80.80
2012,11,03,14,09,75.20
2012,11,03,14,10,70.00
2012,11,03,14,11,67.20
2012,11,03,14,12,67.10
2012,11,03,14,13,69.40
2012,11,03,14,14,73.80
2012,11,03,14,15,82.80
2012,11,03,14,16,93.70
2012,11,03,14,17,104.90
2012,11,03,14,18,118.70
2012,11,03,14,19,132.80
2012,11,03,14,20,142.20
2012,11,03,14,21,144.00
2012,11,03,14,22,141.30
2012,11,03,14,23,141.30
2012,11,03,14,24,147.40
2012,11,03,14,25,155.20
2012,11,03,14,26,155.70
2012,11,03,14,27,155.00
2012,11,03,14,28,153.10
2012,11,03,14,29,149.50
2012,11,03,14,30,146.80
2012,11,03,14,31,137.40
2012,11,03,14,32,126.80
2012,11,03,14,33,118.70
2012,11,03,14,34,118.20
2012,11,03,14,35,123.70
2012,11,03,14,36,132.20
2012,11,03,14,37,141.30
2012,11,03,14,38,137.20
2012,11,03,14,39,123.40
2012,11,03,14,40,114.30
2012,11,03,14,41,118.20
2012,11,03,14,42,129.20
2012,11,03,14,43,136.00
2012,11,03,14,44,130.70
2012,11,03,14,45,124.70
2012,11,03,14,46,112.20
2012,11,03,14,47,100.60
2012,11,03,14,48,94.40
2012,11,03,14,49,95.00
2012,11,03,14,50,105.50
2012,11,03,14,51,122.80
2012,11,03,14,52,134.60
2012,11,03,14,53,138.50
2012,11,03,14,54,135.20
2012,11,03,14,55,122.90
2012,11,03,14,56,112.70
2012,11,03,14,57,96.70
2012,11,03,14,58,84.00
2012,11,03,14,59,74.20
2012,11,03,15,00,70.00
2012,11,03,15,01,72.70
2012,11,03,15,02,76.00
2012,11,03,15,03,71.40
2012,11,03,15,04,64.60
2012,11,03,15,05,62.20
2012,11,03,15,06,66.50
2012,11,03,15,07,79.00
2012,11,03,15,08,91.40
2012,11,03,15,09,94.00
2012,11,03,15,10,88.00
2012,11,03,15,11,82.20
2012,11,03,15,12,81.90
2012,11,03,15,13,83.00
2012,11,03,15,14,78.40
2012,11,03,15,15,69.40
2012,11,03,15,16,59.80
2012,11,03,15,17,49.90
2012,11,03,15,18,44.00
2012,11,03,15,19,38.70
2012,11,03,15,20,37.00
2012,11,03,15,21,36.30
2012,11,03,15,22,34.30
2012,11,03,15,23,33.00
2012,11,03,15,24,32.50
2012,11,03,15,25,30.70
2012,11,03,15,26,31.40
2012,11,03,15,27,32.00
2012,11,03,15,28,32.00
2012,11,03,15,29,30.00
2012,11,03,15,30,27.70
2012,11,03,15,31,25.80
2012,11,03,15,32,24.40
2012,11,03,15,33,23.00
2012,11,03,15,34,24.40
2012,11,03,15,35,27.10
2012,11,03,15,36,31.20
2012,11,03,15,37,35.90
2012,11,03,15,38,37.00
2012,11,03,15,39,33.60
2012,11,03,15,40,35.00
2012,11,03,15,41,37.30
2012,11,03,15,42,39.20
2012,11,03,15,43,39.80
2012,11,03,15,44,39.00
2012,11,03,15,45,37.20
2012,11,03,15,46,36.10
2012,11,03,15,47,38.90
2012,11,03,15,48,40.00
2012,11,03,15,49,39.20
2012,11,03,15,50,39.00
2012,11,03,15,51,39.20
2012,11,03,15,52,42.40
2012,11,03,15,53,46.20
2012,11,03,15,54,46.70
2012,11,03,15,55,47.20
2012,11,03,15,56,49.90
2012,11,03,15,57,51.00
2012,11,03,15,58,47.80
2012,11,03,15,59,44.60
2012,11,03,16,00,40.80
2012,11,03,16,01,37.30
2012,11,03,16,02,33.10
2012,11,03,16,03,31.40
2012,11,03,16,04,28.00
2012,11,03,16,05,28.00
2012,11,03,16,06,28.70
2012,11,03,16,07,30.90
2012,11,03,16,08,34.80
2012,11,03,16,09,39.00
2012,11,03,16,10,39.30
2012,11,03,16,11,37.50
2012,11,03,16,12,37.00
2012,11,03,16,13,35.00
2012,11,03,16,14,35.00
2012,11,03,16,15,35.40
2012,11,03,16,16,37.00
2012,11,03,16,17,37.00
2012,11,03,16,18,37.00
2012,11,03,16,19,37.00
2012,11,03,16,20,37.00
2012,11,03,16,21,37.00
2012,11,03,16,22,37.00
2012,11,03,16,23,37.00
2012,11,03,16,24,37.00
2012,11,03,16,25,37.20
2012,11,03,16,26,39.00
2012,11,03,16,27,38.40
2012,11,03,16,28,37.00
2012,11,03,16,29,36.00
2012,11,03,16,30,35.00
2012,11,03,16,31,33.70
2012,11,03,16,32,33.00
2012,11,03,16,33,33.00
2012,11,03,16,34,33.00
2012,11,03,16,35,33.00
2012,11,03,16,36,32.90
2012,11,03,16,37,32.00
2012,11,03,16,38,31.40
2012,11,03,16,39,30.00
2012,11,03,16,40,30.00
2012,11,03,16,41,31.10
2012,11,03,16,42,32.00
2012,11,03,16,43,32.70
2012,11,03,16,44,32.20
2012,11,03,16,45,32.00
2012,11,03,16,46,30.00
2012,11,03,16,47,27.70
2012,11,03,16,48,25.80
2012,11,03,16,49,24.50
2012,11,03,16,50,22.20
2012,11,03,16,51,20.00
2012,11,03,16,52,19.00
2012,11,03,16,53,18.40
2012,11,03,16,54,18.00
2012,11,03,16,55,16.40
2012,11,03,16,56,16.00
2012,11,03,16,57,14.10
2012,11,03,16,58,13.80
2012,11,03,16,59,12.50
2012,11,03,17,00,14.00
2012,11,03,17,01,14.00
2012,11,03,17,02,14.00
2012,11,03,17,03,14.00
2012,11,03,17,04,12.70
2012,11,03,17,05,12.00
2012,11,03,17,06,11.20
2012,11,03,17,07,11.00
2012,11,03,17,08,11.00
2012,11,03,17,09,10.70
2012,11,03,17,10,9.00
2012,11,03,17,11,8.40
2012,11,03,17,12,7.00
2012,11,03,17,13,7.00
2012,11,03,17,14,7.00
2012,11,03,17,15,7.00
2012,11,03,17,16,7.00
2012,11,03,17,17,7.00
2012,11,03,17,18,7.00
2012,11,03,17,19,6.90
2012,11,03,17,20,5.00
2012,11,03,17,21,5.00
2012,11,03,17,22,5.00
2012,11,03,17,23,3.20
2012,11,03,17,24,0.00
2012,11,03,17,25,0.00
2012,11,03,17,26,0.00
2012,11,03,17,27,0.00
2012,11,03,17,28,0.00
2012,11,03,17,29,0.00
2012,11,03,17,30,0.00
2012,11,03,17,31,0.00
2012,11,03,17,32,0.00
2012,11,03,17,33,0.00
2012,11,03,17,34,0.00
2012,11,03,17,35,0.00
2012,11,03,17,36,0.00
2012,11,03,17,37,0.00
2012,11,03,17,38,0.00
2012,11,03,17,39,0.00